N4DBJ Weather Reports


time (UTC)temp
F
wind
direction
speed
knots
gust
knots
rain 1hr
in
rain 24hr
in
rain mn
in
humidity
%
barometer
mb
20260906022732 78 228 0.0 0.0 0.00 0.00 0.00 87 1009.4
20260906022227 79 201 0.9 0.9 0.00 0.00 0.00 86 1009.4
20260906021723 79 41 0.0 0.9 0.00 0.00 0.00 85 1009.3
20260906021222 79 179 0.0 0.0 0.00 0.00 0.00 84 1009.1
20260906020717 80 203 0.0 0.0 0.00 0.00 0.00 83 1009.0
20260906020212 80 128 0.0 0.0 0.00 0.00 0.00 82 1009.6
20260906015706 81 111 0.0 0.0 0.00 0.00 0.00 82 1009.1
20260906015205 81 34 0.0 1.7 0.00 0.00 0.00 81 1009.1
20260906014705 81 273 0.0 0.9 0.00 0.00 0.00 80 1009.0
20260906014201 82 163 0.0 0.0 0.00 0.00 0.00 79 1008.9
20260906013657 82 197 0.0 0.9 0.00 0.00 0.00 77 1008.9
20260906013152 83 151 0.0 0.9 0.00 0.00 0.00 78 1009.0
20260906012651 83 156 0.0 1.7 0.00 0.00 0.00 78 1008.9
20260906012146 83 207 0.0 4.3 0.00 0.00 0.00 78 1009.0
20260906011642 83 32 0.0 0.9 0.00 0.00 0.00 86 1009.0
20260906011136 83 56 0.0 1.7 0.00 0.00 0.00 82 1008.8
20260906010626 83 65 0.0 0.0 0.00 0.00 0.00 87 1008.7
20260906010123 83 46 0.0 0.9 0.00 0.00 0.00 86 1008.7
20260906005622 83 241 0.0 0.9 0.00 0.00 0.00 87 1008.7
20260906005121 82 79 1.7 2.6 0.00 0.00 0.00 87 1008.5
20260906004620 82 7 1.7 1.7 0.00 0.00 0.00 89 1008.8
20260906004115 83 249 0.0 0.0 0.00 0.00 0.00 89 1009.1
20260906003611 83 225 0.9 0.9 0.00 0.00 0.00 89 1008.9
20260906003106 83 209 0.0 0.0 0.00 0.00 0.00 88 1008.8
20260906002601 83 189 0.0 0.9 0.00 0.00 0.00 88 1009.0
20260906002056 84 168 0.0 0.0 0.00 0.00 0.00 87 1008.9
20260906001551 84 168 0.0 0.0 0.00 0.00 0.00 86 1009.0
20260906001045 84 168 0.0 0.0 0.00 0.00 0.00 85 1008.8
20260906000541 85 166 0.0 0.0 0.00 0.00 0.00 84 1008.9
20260906000036 86 193 0.0 0.0 0.00 0.00 0.00 83 1008.7
20260905235536 86 196 0.0 0.0 0.00 0.00 0.00 81 1008.7
20260905235031 87 196 0.0 0.0 0.00 0.00 0.00 79 1008.7
20260905234527 87 196 0.0 0.0 0.00 0.00 0.00 77 1009.0
20260905234027 88 196 0.0 0.0 0.00 0.00 0.00 75 1008.9
20260905233521 89 197 0.0 0.0 0.00 0.00 0.00 76 1008.8
20260905233021 90 181 0.0 0.0 0.00 0.00 0.00 72 1008.8
20260905232517 91 189 0.0 0.0 0.00 0.00 0.00 72 1008.9
20260905232012 92 190 0.0 0.0 0.00 0.00 0.00 69 1008.8
20260905231508 93 235 0.0 0.9 0.00 0.00 0.00 66 1008.6
20260905231004 95 259 0.0 0.9 0.00 0.00 0.00 63 1008.7
20260905230503 96 251 0.0 0.0 0.00 0.00 0.00 62 1008.8
20260905230001 96 274 0.0 0.0 0.00 0.00 0.00 61 1008.6
20260905225456 96 247 0.0 0.0 0.00 0.00 0.00 60 1008.5
20260905224951 96 234 0.0 0.0 0.00 0.00 0.00 61 1008.7
20260905224446 96 199 0.9 0.9 0.00 0.00 0.00 60 1008.9
20260905223945 96 247 0.9 1.7 0.00 0.00 0.00 58 1009.0
20260905223443 96 184 0.9 0.9 0.00 0.00 0.00 56 1008.8
20260905222944 96 126 0.9 1.7 0.00 0.00 0.00 58 1008.5
20260905222438 96 352 0.0 1.7 0.00 0.00 0.00 59 1008.7
20260905221934 97 238 1.7 2.6 0.00 0.00 0.00 59 1008.8
20260905221430 98 287 0.0 0.9 0.00 0.00 0.00 60 1008.7
20260905220926 97 152 0.0 0.9 0.00 0.00 0.00 60 1008.8
20260905220422 95 279 0.0 0.9 0.00 0.00 0.00 64 1008.8
20260905215921 94 138 0.0 0.9 0.00 0.00 0.00 64 1008.8
20260905215416 96 267 0.0 0.9 0.00 0.00 0.00 62 1008.9
20260905214913 98 181 0.0 0.9 0.00 0.00 0.00 54 1008.7
20260905214408 100 246 0.0 0.9 0.00 0.00 0.00 54 1008.8
20260905213908 100 218 0.0 0.9 0.00 0.00 0.00 50 1008.8
20260905213404 100 237 0.9 1.7 0.00 0.00 0.00 48 1008.7
20260905212900 99 245 0.0 0.9 0.00 0.00 0.00 53 1008.7
20260905212354 99 246 0.0 2.6 0.00 0.00 0.00 50 1008.6
20260905211847 99 32 0.0 1.7 0.00 0.00 0.00 49 1008.9
20260905211344 101 242 1.7 4.3 0.00 0.00 0.00 49 1008.8
20260905210840 101 115 0.9 1.7 0.00 0.00 0.00 48 1008.9
20260905210340 101 153 0.9 0.9 0.00 0.00 0.00 49 1008.9
20260905205838 101 244 0.9 1.7 0.00 0.00 0.00 48 1009.1
20260905205333 102 227 0.9 2.6 0.00 0.00 0.00 48 1009.1
20260905204832 102 297 0.9 0.9 0.00 0.00 0.00 48 1009.0
20260905204329 101 209 1.7 1.7 0.00 0.00 0.00 48 1009.4
20260905203827 101 274 0.9 1.7 0.00 0.00 0.00 54 1009.3
20260905203324 101 250 0.9 0.9 0.00 0.00 0.00 54 1009.3
20260905202819 100 183 0.0 0.9 0.00 0.00 0.00 51 1009.6
20260905202314 98 19 0.0 2.6 0.00 0.00 0.00 50 1009.4
20260905201809 99 138 2.6 4.3 0.00 0.00 0.00 50 1009.6
20260905201305 100 267 0.9 1.7 0.00 0.00 0.00 50 1009.7
20260905200759 99 144 2.6 2.6 0.00 0.00 0.00 50 1009.7
20260905200255 98 41 1.7 2.6 0.00 0.00 0.00 52 1009.7
20260905195753 98 189 3.5 5.2 0.00 0.00 0.00 53 1009.8
20260905195248 100 169 4.3 5.2 0.00 0.00 0.00 51 1009.9
20260905194744 99 225 2.6 4.3 0.00 0.00 0.00 51 1010.1
20260905194243 99 203 2.6 4.3 0.00 0.00 0.00 52 1010.0
20260905193743 100 269 0.9 6.1 0.00 0.00 0.00 52 1010.2
20260905193238 100 101 1.7 4.3 0.00 0.00 0.00 52 1010.1
20260905192733 100 359 0.9 0.9 0.00 0.00 0.00 55 1010.0
20260905192229 100 155 0.9 2.6 0.00 0.00 0.00 53 1010.3
20260905191729 100 277 4.3 5.2 0.00 0.00 0.00 52 1010.1
20260905191227 99 103 3.5 4.3 0.00 0.00 0.00 52 1010.3
20260905190726 99 354 0.0 4.3 0.00 0.00 0.00 53 1010.1
20260905190225 99 259 0.9 2.6 0.00 0.00 0.00 53 1010.4
20260905185724 99 286 0.9 2.6 0.00 0.00 0.00 51 1010.4
20260905185219 97 243 0.0 1.7 0.00 0.00 0.00 57 1010.6
20260905184713 97 338 0.0 0.0 0.00 0.00 0.00 60 1010.6
20260905184212 98 352 0.9 1.7 0.00 0.00 0.00 54 1010.7
20260905183706 98 45 0.0 0.9 0.00 0.00 0.00 58 1011.0
20260905183201 99 54 0.0 0.9 0.00 0.00 0.00 54 1010.7
20260905182701 99 333 0.9 0.9 0.00 0.00 0.00 54 1010.7
20260905182201 100 346 0.9 1.7 0.00 0.00 0.00 52 1010.9
20260905181656 100 42 0.9 0.9 0.00 0.00 0.00 55 1011.1
20260905181155 100 259 0.9 1.7 0.00 0.00 0.00 55 1011.3
20260905180649 99 279 0.9 0.9 0.00 0.00 0.00 58 1011.1
20260905180145 98 311 0.0 0.9 0.00 0.00 0.00 59 1011.3
20260905175644 98 11 0.9 1.7 0.00 0.00 0.00 55 1011.2
20260905175140 98 302 0.9 1.7 0.00 0.00 0.00 60 1011.4
20260905174635 100 42 2.6 2.6 0.00 0.00 0.00 54 1011.4
20260905174131 98 184 0.0 1.7 0.00 0.00 0.00 55 1011.4
20260905173626 98 80 0.9 1.7 0.00 0.00 0.00 56 1011.6
20260905173122 98 4 0.9 2.6 0.00 0.00 0.00 56 1011.5
20260905172621 98 210 0.9 2.6 0.00 0.00 0.00 59 1011.7
20260905172116 98 265 2.6 2.6 0.00 0.00 0.00 55 1011.5
20260905171612 98 31 0.0 0.9 0.00 0.00 0.00 62 1011.8
20260905171108 97 355 0.9 1.7 0.00 0.00 0.00 60 1011.6
20260905170604 98 53 0.9 0.9 0.00 0.00 0.00 58 1011.7
20260905170059 97 27 0.9 0.9 0.00 0.00 0.00 59 1011.6
20260905165554 97 241 0.9 1.7 0.00 0.00 0.00 62 1011.8
20260905165049 98 252 1.7 2.6 0.00 0.00 0.00 59 1011.8
20260905164544 97 213 0.0 0.9 0.00 0.00 0.00 60 1011.9
20260905164038 96 339 0.0 1.7 0.00 0.00 0.00 63 1011.7
20260905163534 96 14 0.9 1.7 0.00 0.00 0.00 59 1011.8
20260905163030 96 236 0.9 2.6 0.00 0.00 0.00 62 1011.8
20260905162527 96 40 0.9 1.7 0.00 0.00 0.00 65 1012.0
20260905162021 96 48 0.9 1.7 0.00 0.00 0.00 64 1012.2
20260905161520 96 295 0.9 1.7 0.00 0.00 0.00 64 1012.2
20260905161018 96 53 0.9 0.9 0.00 0.00 0.00 63 1012.4
20260905160511 95 358 0.9 1.7 0.00 0.00 0.00 65 1012.0
20260905160006 94 25 0.9 0.9 0.00 0.00 0.00 65 1012.3
20260905155506 93 97 0.9 0.9 0.00 0.00 0.00 71 1012.4
20260905155004 93 30 0.0 0.9 0.00 0.00 0.00 72 1012.5
20260905154500 93 317 0.0 1.7 0.00 0.00 0.00 69 1012.6
20260905153955 92 27 0.9 0.9 0.00 0.00 0.00 73 1012.6
20260905153452 91 50 0.9 1.7 0.00 0.00 0.00 76 1012.7
20260905152951 92 144 0.0 1.7 0.00 0.00 0.00 70 1012.6
20260905152451 91 4 0.0 0.9 0.00 0.00 0.00 74 1012.8
20260905151946 91 154 0.0 0.9 0.00 0.00 0.00 70 1012.6
20260905151441 91 46 0.9 0.9 0.00 0.00 0.00 74 1012.8
20260905150936 91 40 0.0 0.9 0.00 0.00 0.00 75 1012.8
20260905150436 89 90 0.0 0.9 0.00 0.00 0.00 77 1012.6
20260905145932 89 37 0.9 1.7 0.00 0.00 0.00 76 1012.6
20260905145427 89 52 0.0 0.9 0.00 0.00 0.00 78 1012.8
20260905144927 88 53 0.0 0.9 0.00 0.00 0.00 76 1012.7
20260905144423 88 117 0.0 0.9 0.00 0.00 0.00 80 1012.7
20260905143921 87 32 0.0 0.9 0.00 0.00 0.00 82 1012.6
20260905143415 86 60 0.9 0.9 0.00 0.00 0.00 81 1012.7
20260905142915 84 124 0.9 1.7 0.00 0.00 0.00 82 1012.7
20260905142414 83 81 0.9 0.9 0.00 0.00 0.00 88 1012.9
20260905141910 82 78 0.9 0.9 0.00 0.00 0.00 92 1013.0
20260905141404 80 72 0.0 0.9 0.00 0.00 0.00 97 1012.9
20260905140901 79 62 0.0 0.9 0.00 0.00 0.00 99 1013.0
20260905140355 78 77 0.0 0.9 0.00 0.00 0.00 99 1012.9
20260905135854 78 33 0.0 0.0 0.00 0.00 0.00 99 1012.9
20260905135350 77 56 0.0 0.9 0.00 0.00 0.00 99 1012.9
20260905134845 77 49 0.0 0.0 0.00 0.00 0.00 99 1012.8
20260905134344 76 46 0.0 0.0 0.00 0.00 0.00 99 1013.1
20260905133838 75 30 0.0 0.0 0.00 0.00 0.00 99 1013.1
20260905133334 75 63 0.0 0.0 0.00 0.00 0.00 99 1013.0
20260905132833 75 43 0.0 0.0 0.00 0.00 0.00 99 1013.1
20260905132329 75 53 0.0 0.0 0.00 0.00 0.00 99 1013.0
20260905131823 75 135 0.0 0.0 0.00 0.00 0.00 99 1013.0
20260905131319 74 135 0.0 0.0 0.00 0.00 0.00 99 1012.8
20260905130814 74 135 0.0 0.0 0.00 0.00 0.00 99 1012.9
20260905130312 74 135 0.0 0.0 0.00 0.00 0.00 99 1013.0
20260905125808 74 135 0.0 0.0 0.00 0.00 0.00 99 1012.8
20260905125305 74 187 0.0 0.0 0.00 0.00 0.00 99 1012.7
20260905124759 73 192 0.0 0.0 0.00 0.00 0.00 99 1012.9
20260905124254 73 185 0.0 0.0 0.00 0.00 0.00 99 1013.0
20260905123749 73 173 0.0 0.0 0.00 0.00 0.00 99 1012.9
20260905123247 73 173 0.0 0.0 0.00 0.00 0.00 99 1012.8
20260905122747 73 173 0.0 0.0 0.00 0.00 0.00 99 1013.0
20260905122246 72 139 0.0 0.0 0.00 0.00 0.00 99 1012.7
20260905121741 72 183 0.0 0.0 0.00 0.00 0.00 99 1012.9
20260905121238 72 184 0.0 0.0 0.00 0.00 0.00 99 1012.8
20260905120736 72 187 0.0 0.0 0.00 0.00 0.00 99 1012.8
20260905120231 72 195 0.0 0.0 0.00 0.00 0.00 99 1012.8
20260905115726 71 181 0.0 0.0 0.00 0.00 0.00 99 1012.5
20260905115225 71 184 0.0 0.0 0.00 0.00 0.00 99 1012.4
20260905114721 71 166 0.0 0.0 0.00 0.00 0.00 99 1012.6
20260905114219 71 162 0.0 0.0 0.00 0.00 0.00 99 1012.2
20260905113719 70 165 0.0 0.0 0.00 0.00 0.00 99 1012.4
20260905113214 70 165 0.0 0.0 0.00 0.00 0.00 99 1012.5
20260905112714 70 165 0.0 0.0 0.00 0.00 0.00 99 1012.3
20260905112210 70 166 0.0 0.0 0.00 0.00 0.00 99 1012.2
20260905111709 70 166 0.0 0.0 0.00 0.00 0.00 99 1012.2
20260905111209 70 166 0.0 0.0 0.00 0.00 0.00 99 1012.0
20260905110709 70 166 0.0 0.0 0.00 0.00 0.00 99 1012.0
20260905110203 71 166 0.0 0.0 0.00 0.00 0.00 99 1012.0
20260905105659 71 163 0.0 0.0 0.00 0.00 0.00 99 1011.8
20260905105157 71 164 0.0 0.0 0.00 0.00 0.00 99 1011.6
20260905104652 71 164 0.0 0.0 0.00 0.00 0.00 99 1011.7
20260905104148 71 151 0.0 0.0 0.00 0.00 0.00 99 1011.6
20260905103643 71 163 0.0 0.0 0.00 0.00 0.00 99 1011.8
20260905103139 71 163 0.0 0.0 0.00 0.00 0.00 99 1011.9
20260905102635 71 163 0.0 0.0 0.00 0.00 0.00 99 1011.7
20260905102131 71 163 0.0 0.0 0.00 0.00 0.00 99 1011.7
20260905101629 71 163 0.0 0.0 0.00 0.00 0.00 99 1011.8
20260905101128 71 163 0.0 0.0 0.00 0.00 0.00 99 1011.6
20260905100624 71 163 0.0 0.0 0.00 0.00 0.00 99 1011.7
20260905100119 71 163 0.0 0.0 0.00 0.00 0.00 99 1011.8
20260905095613 71 163 0.0 0.0 0.00 0.00 0.00 99 1011.5
20260905095108 71 163 0.0 0.0 0.00 0.00 0.00 99 1011.7
20260905094604 71 157 0.0 0.0 0.00 0.00 0.00 99 1011.4
20260905094103 71 153 0.0 0.0 0.00 0.00 0.00 99 1011.6
20260905093603 71 153 0.0 0.0 0.00 0.00 0.00 99 1011.4
20260905093059 71 152 0.0 0.0 0.00 0.00 0.00 99 1011.4
20260905092559 71 152 0.0 0.0 0.00 0.00 0.00 99 1011.4
20260905092055 71 174 0.0 0.0 0.00 0.00 0.00 99 1011.2
20260905091554 71 174 0.0 0.0 0.00 0.00 0.00 99 1011.5
20260905091049 71 174 0.0 0.0 0.00 0.00 0.00 99 1011.2
20260905090548 71 174 0.0 0.0 0.00 0.00 0.00 99 1011.1
20260905090044 71 174 0.0 0.0 0.00 0.00 0.00 99 1011.3
20260905085542 71 174 0.0 0.0 0.00 0.00 0.00 99 1011.2
20260905085038 71 175 0.0 0.0 0.00 0.00 0.00 99 1011.3
20260905084538 71 175 0.0 0.0 0.00 0.00 0.00 99 1011.4
20260905084033 71 176 0.0 0.0 0.00 0.00 0.00 99 1011.4
20260905083527 71 175 0.0 0.0 0.00 0.00 0.00 99 1011.4
20260905083025 71 175 0.0 0.0 0.00 0.00 0.00 99 1011.6
20260905082519 71 175 0.0 0.0 0.00 0.00 0.00 99 1011.4
20260905082016 71 175 0.0 0.0 0.00 0.00 0.00 99 1011.5
20260905081514 72 178 0.0 0.0 0.00 0.00 0.00 99 1011.4
20260905081009 72 178 0.0 0.0 0.00 0.00 0.00 99 1011.6
20260905080504 72 178 0.0 0.0 0.00 0.00 0.00 99 1011.3
20260905080004 72 180 0.0 0.0 0.00 0.00 0.00 99 1011.3
20260905075457 72 180 0.0 0.0 0.00 0.00 0.00 99 1011.2
20260905074956 72 170 0.0 0.0 0.00 0.00 0.00 99 1011.4
20260905074452 72 170 0.0 0.0 0.00 0.00 0.00 99 1011.4
20260905073947 72 170 0.0 0.0 0.00 0.00 0.00 99 1011.3
20260905073442 72 171 0.0 0.0 0.00 0.00 0.00 99 1011.4
20260905072938 72 166 0.0 0.0 0.00 0.00 0.00 99 1011.6
20260905072432 72 166 0.0 0.0 0.00 0.00 0.00 99 1011.5
20260905071928 72 166 0.0 0.0 0.00 0.00 0.00 99 1011.5
20260905071426 72 166 0.0 0.0 0.00 0.00 0.00 99 1011.5
20260905070924 72 162 0.0 0.0 0.00 0.00 0.00 99 1011.7
20260905070421 72 169 0.0 0.0 0.00 0.00 0.00 99 1011.8
20260905065920 72 170 0.0 0.0 0.00 0.00 0.00 99 1011.5
20260905065419 72 168 0.0 0.0 0.00 0.00 0.00 99 1011.6
20260905064914 72 168 0.0 0.0 0.00 0.00 0.00 99 1011.8
20260905064409 72 168 0.0 0.0 0.00 0.00 0.00 99 1011.7
20260905063909 72 168 0.0 0.0 0.00 0.00 0.00 99 1011.8
20260905063404 73 169 0.0 0.0 0.00 0.00 0.00 99 1011.9
20260905062900 73 169 0.0 0.0 0.00 0.00 0.00 99 1011.9
20260905062354 73 169 0.0 0.0 0.00 0.00 0.00 99 1012.0
20260905061849 73 169 0.0 0.0 0.00 0.00 0.00 99 1011.8
20260905061349 73 161 0.0 0.0 0.00 0.00 0.00 99 1012.0
20260905060843 73 159 0.0 0.0 0.00 0.00 0.00 99 1012.2
20260905060340 73 155 0.0 0.0 0.00 0.00 0.00 99 1012.0
20260905055839 73 124 0.0 0.0 0.00 0.00 0.00 99 1011.9
20260905055334 73 124 0.0 0.0 0.00 0.00 0.00 99 1012.0
20260905054833 73 124 0.0 0.0 0.00 0.00 0.00 99 1011.9
20260905054330 73 107 0.0 0.0 0.00 0.00 0.00 99 1011.8
20260905053830 73 142 0.0 0.0 0.00 0.00 0.00 99 1011.9
20260905053324 74 166 0.0 0.0 0.00 0.00 0.00 99 1011.8
20260905052820 74 148 0.0 0.0 0.00 0.00 0.00 99 1011.8
20260905052314 74 148 0.0 0.0 0.00 0.00 0.00 99 1012.0
20260905051814 74 148 0.0 0.0 0.00 0.00 0.00 99 1011.9
20260905051310 74 176 0.0 0.0 0.00 0.00 0.00 99 1011.6
20260905050807 74 176 0.0 0.0 0.00 0.00 0.00 99 1011.7
20260905050303 74 176 0.0 0.0 0.00 0.00 0.00 99 1011.9
20260905045803 74 179 0.0 0.0 0.00 0.00 0.00 99 1011.9
20260905045258 74 171 0.0 0.9 0.00 0.00 0.00 99 1011.9
20260905044753 75 173 0.9 0.9 0.00 0.00 0.00 99 1011.8
20260905044248 75 239 0.0 0.0 0.00 0.00 0.00 99 1012.2
20260905043747 75 116 0.9 0.9 0.00 0.00 0.00 99 1011.9
20260905043242 75 289 0.9 0.9 0.00 0.00 0.00 99 1012.2
20260905042737 75 358 0.0 0.0 0.00 0.00 0.00 99 1011.8
20260905042236 75 169 0.0 0.0 0.00 0.00 0.00 99 1011.9
20260905041731 75 138 0.0 0.0 0.00 0.00 0.00 99 1012.0
20260905041227 75 189 0.0 0.9 0.00 0.00 0.00 99 1012.0
20260905040722 75 171 0.0 0.0 0.00 0.00 0.00 99 1011.9
20260905040221 75 195 0.0 0.0 0.00 0.00 0.00 99 1011.9
20260905035720 75 195 0.0 0.0 0.00 0.00 0.00 99 1012.3
20260905035217 75 197 0.0 0.0 0.00 0.00 0.00 99 1012.3
20260905034713 75 173 0.9 1.7 0.00 0.00 0.00 99 1012.2
20260905034213 75 56 0.0 0.0 0.00 0.00 0.00 99 1012.2
20260905033711 75 183 0.0 0.0 0.00 0.00 0.00 99 1012.4
20260905033207 76 154 0.0 0.9 0.00 0.00 0.00 99 1012.4
20260905032707 76 187 0.0 0.0 0.00 0.00 0.00 99 1012.3
20260905032202 76 197 0.0 0.0 0.00 0.00 0.00 99 1012.4
20260905031658 76 336 0.0 0.0 0.00 0.00 0.00 99 1012.4
20260905031152 76 228 0.0 0.0 0.00 0.00 0.00 99 1012.3
20260905030648 76 255 0.0 0.0 0.00 0.00 0.00 99 1012.3
20260905030143 76 257 0.0 0.0 0.00 0.00 0.00 99 1012.5
20260905025638 76 239 0.0 0.0 0.00 0.00 0.00 99 1012.4
20260905025134 77 278 0.0 0.0 0.00 0.00 0.00 99 1012.5
20260905024629 77 202 0.0 0.0 0.00 0.00 0.00 99 1012.4
20260905024125 77 192 0.0 0.0 0.00 0.00 0.00 99 1012.8
20260905023620 77 196 0.0 0.0 0.00 0.00 0.00 99 1012.5
20260905023114 77 199 0.0 0.0 0.00 0.00 0.00 99 1012.4